QPF
0.00 0.00 0.00 0.00 0.00 0.00 0.00 0.02 0.01 0.01 0.02 0.03 0.05 0.04 0.02 0.00 0.00 0.00 0.00 0.00 0.00 0.00 0.00 0.00 0.00 0.00 0.00 0.00 0.00 0.00 0.00 0.00 0.00 0.00 0.00 0.00 0.00 0.00
0.00 0.00 0.00 0.00 0.00 0.00 0.00 0.00 0.00 0.00 0.00 0.00 0.00 0.00 0.00 0.00 0.00 0.00 0.00 0.00 0.00 0.00 0.00 0.00 0.00 0.00 0.00 0.00 0.00 0.00 0.00 0.00 0.00 0.00 0.00 0.00 0.00 0.00
0.00 0.00 0.00 0.00 0.00 0.00 0.00 0.00 0.00 0.00 0.00 0.00 0.00 0.00 0.00 0.00 0.00 0.00 0.00 0.00 0.00 0.00 0.00 0.00 0.00 0.00 0.00 0.00 0.00 0.00 0.00 0.00 0.00 0.00 0.00 0.00 0.00 0.00
0.00 0.00 0.00 0.00 0.00 0.00 0.00 0.00 0.00 0.02 0.01 0.01 0.00 0.00 0.00 0.00 0.01 0.02 0.00 0.00 0.00 0.00 0.00 0.00 0.00 0.00 0.00 0.00 0.00 0.00 0.00 0.00 0.00 0.00 0.00 0.00 0.00 0.00
0.00 0.00 0.00 0.01 0.00 0.00 0.00 0.00 0.00 0.02 0.01 0.03 0.01 0.01 0.01 0.01 0.02 0.00 0.00 0.00 0.00 0.00 0.00 0.00 0.00 0.00 0.00 0.00 0.00 0.00 0.00 0.00 0.00 0.00 0.00 0.00 0.00 0.00
0.02 0.02 0.01 0.00 0.01 0.01 0.02 0.00 0.00 0.01 0.00 0.00 0.02 0.03 0.04 0.04 0.02 0.02 0.00 0.00 0.00 0.00 0.00 0.00 0.00 0.00 0.00 0.00 0.00 0.00 0.00 0.00 0.00 0.00 0.00 0.00 0.00 0.00
0.03 0.07 0.04 0.02 0.01 0.00 0.01 0.00 0.00 0.00 0.00 0.00 0.00 0.01 0.03 0.03 0.02 0.03 0.01 0.00 0.00 0.00 0.00 0.00 0.00 0.00 0.00 0.00 0.00 0.00 0.00 0.00 0.00 0.00 0.00 0.00 0.00 0.00
0.03 0.05 0.03 0.06 0.06 0.02 0.00 0.00 0.00 0.00 0.00 0.00 0.00 0.00 0.01 0.03 0.03 0.02 0.00 0.00 0.00 0.00 0.00 0.00 0.00 0.00 0.02 0.01 0.01 0.00 0.00 0.00 0.00 0.00 0.00 0.00 0.00 0.00
0.05 0.12 0.06 0.04 0.08 0.06 0.02 0.00 0.00 0.00 0.00 0.00 0.00 0.00 0.00 0.00 0.00 0.00 0.00 0.00 0.00 0.00 0.00 0.00 0.00 0.00 0.04 0.01 0.01 0.01 0.03 0.06 0.03 0.03 0.00 0.00 0.00 0.00
0.06 0.08 0.07 0.06 0.00 0.00 0.00 0.00 0.00 0.00 0.00 0.00 0.00 0.00 0.00 0.00 0.00 0.00 0.00 0.00 0.00 0.01 0.00 0.00 0.00 0.00 0.00 0.00 0.03 0.04 0.10 0.11 0.09 0.04 0.01 0.00 0.01 0.00
0.07 0.04 0.01 0.00 0.00 0.00 0.00 0.00 0.00 0.00 0.00 0.00 0.00 0.00 0.00 0.00 0.00 0.00 0.00 0.00 0.00 0.00 0.00 0.00 0.00 0.00 0.00 0.00 0.01 0.01 0.00 0.01 0.01 0.02 0.00 0.00 0.00 0.00
0.00 0.00 0.00 0.00 0.00 0.00 0.00 0.00 0.00 0.00 0.00 0.00 0.00 0.00 0.00 0.00 0.00 0.00 0.00 0.00 0.00 0.00 0.00 0.00 0.00 0.00 0.00 0.00 0.00 0.00 0.00 0.00 0.00 0.00 0.01 0.01 0.00 0.00
0.00 0.00 0.00 0.00 0.00 0.00 0.00 0.00 0.00 0.00 0.00 0.00 0.00 0.00 0.00 0.00 0.00 0.00 0.00 0.00 0.00 0.00 0.00 0.00 0.00 0.00 0.00 0.00 0.00 0.00 0.00 0.00 0.00 0.00 0.00 0.00 0.00 0.00
0.00 0.00 0.00 0.00 0.00 0.00 0.00 0.00 0.00 0.00 0.00 0.00 0.00 0.00 0.00 0.00 0.00 0.00 0.00 0.00 0.00 0.00 0.00 0.00 0.00 0.00 0.00 0.00 0.00 0.00 0.00 0.00 0.00 0.00 0.00 0.00 0.00 0.00
0.00 0.00 0.00 0.00 0.00 0.00 0.00 0.00 0.00 0.00 0.00 0.00 0.00 0.00 0.00 0.00 0.00 0.00 0.00 0.00 0.00 0.00 0.00 0.00 0.00 0.00 0.00 0.00 0.00 0.00 0.00 0.00 0.00 0.00 0.00 0.00 0.00 0.00
0.00 0.00 0.00 0.00 0.00 0.00 0.00 0.00 0.00 0.00 0.00 0.00 0.00 0.00 0.00 0.00 0.00 0.00 0.00 0.00 0.00 0.00 0.00 0.00 0.00 0.00 0.00 0.00 0.00 0.00 0.00 0.00 0.00 0.00 0.00 0.00 0.00 0.00
0.00 0.00 0.00 0.00 0.00 0.00 0.00 0.00 0.00 0.00 0.00 0.00 0.00 0.00 0.00 0.00 0.00 0.00 0.00 0.00 0.00 0.00 0.00 0.00 0.00 0.00 0.00 0.00 0.00 0.00 0.00 0.00 0.00 0.00 0.00 0.00 0.00 0.00
0.00 0.00 0.00 0.00 0.00 0.00 0.00 0.00 0.00 0.00 0.00 0.00 0.00 0.00 0.00 0.00 0.00 0.00 0.00 0.00 0.00 0.00 0.00 0.00 0.00 0.00 0.00 0.00 0.00 0.00 0.00 0.00 0.00 0.00 0.00 0.00 0.00 0.00
0.00 0.00 0.00 0.00 0.00 0.00 0.00 0.00 0.00 0.00 0.00 0.00 0.00 0.00 0.00 0.00 0.00 0.00 0.00 0.00 0.00 0.00 0.00 0.00 0.00 0.00 0.00 0.00 0.00 0.00 0.00 0.00 0.00 0.00 0.00 0.00 0.00 0.00
0.00 0.00 0.00 0.00 0.00 0.00 0.00 0.00 0.00 0.00 0.00 0.00 0.00 0.00 0.00 0.00 0.00 0.00 0.00 0.00 0.00 0.00 0.00 0.00 0.00 0.00 0.00 0.00 0.00 0.00 0.00 0.00 0.00 0.00 0.00 0.00 0.00 0.00
0.00 0.00 0.00 0.00 0.00 0.00 0.00 0.00 0.00 0.00 0.00 0.00 0.00 0.00 0.00 0.00 0.00 0.00 0.00 0.00 0.00 0.00 0.00 0.00 0.00 0.00 0.00 0.00 0.00 0.00 0.00 0.00 0.00 0.00 0.00 0.00 0.00 0.00
0.00 0.00 0.00 0.00 0.00 0.00 0.00 0.00 0.00 0.00 0.00 0.00 0.00 0.00 0.00 0.00 0.00 0.00 0.00 0.00 0.00 0.00 0.00 0.00 0.00 0.00 0.00 0.00 0.00 0.00 0.00 0.00 0.00 0.00 0.00 0.00 0.00 0.00
0.00 0.00 0.00 0.00 0.00 0.00 0.00 0.00 0.00 0.00 0.00 0.00 0.00 0.00 0.00 0.00 0.00 0.00 0.00 0.00 0.00 0.00 0.00 0.00 0.00 0.00 0.00 0.00 0.00 0.00 0.00 0.00 0.00 0.00 0.00 0.00 0.00 0.00
MSLP
1020.60 1020.72 1020.75 1020.95 1021.04 1020.99 1021.33 1021.61 1021.29 1022.33 1022.67 1021.97 1021.42 1020.04 1019.94 1019.52 1018.75 1018.39 1017.48 1017.38 1017.22 1016.76 1016.29 1016.16 1016.01 1015.98 1016.27 1016.21 1016.10 1016.23 1016.27 1016.24 1016.15 1016.17 1016.27 1016.40 1016.54 1016.62
1020.65 1020.71 1020.73 1020.80 1020.83 1020.92 1020.85 1020.78 1020.61 1020.75 1021.16 1020.82 1020.65 1019.87 1019.39 1018.76 1017.69 1017.36 1017.11 1017.07 1016.69 1016.31 1015.83 1015.85 1015.77 1015.66 1015.75 1015.74 1015.78 1015.80 1015.88 1015.93 1015.91 1015.95 1016.05 1016.09 1016.16 1016.29
1020.40 1020.41 1020.51 1020.53 1020.73 1020.81 1020.77 1020.53 1020.33 1020.29 1020.86 1020.43 1019.71 1018.82 1018.35 1017.95 1017.65 1017.44 1017.39 1016.93 1016.60 1016.23 1016.01 1015.85 1015.75 1015.53 1015.40 1015.37 1015.42 1015.49 1015.47 1015.51 1015.64 1015.77 1015.86 1015.91 1015.99 1016.07
1020.26 1020.16 1020.10 1020.12 1020.34 1020.48 1020.65 1020.72 1020.73 1020.67 1020.67 1020.56 1019.82 1019.18 1018.87 1018.65 1018.46 1018.30 1017.65 1017.08 1016.68 1016.30 1016.13 1016.03 1015.92 1015.63 1015.47 1015.11 1015.02 1015.05 1014.97 1015.16 1015.41 1015.59 1015.57 1015.59 1015.83 1016.02
1019.85 1019.97 1020.03 1020.09 1020.24 1020.27 1020.44 1020.59 1020.52 1020.47 1020.48 1020.52 1020.11 1019.64 1019.58 1019.15 1018.86 1018.25 1017.93 1017.55 1016.88 1016.47 1016.23 1016.16 1015.83 1015.55 1015.21 1014.62 1014.27 1014.38 1014.68 1014.95 1015.09 1015.30 1015.42 1015.35 1015.29 1015.49
1019.70 1019.76 1019.82 1019.73 1019.97 1020.17 1020.44 1020.54 1020.53 1020.52 1020.62 1020.66 1020.39 1020.23 1020.13 1019.73 1019.44 1019.13 1018.50 1018.02 1017.42 1016.72 1016.44 1016.37 1015.83 1015.32 1014.94 1014.47 1014.06 1014.18 1014.61 1014.88 1014.88 1015.17 1015.18 1015.27 1015.18 1015.12
1019.68 1019.91 1019.83 1019.93 1019.84 1020.13 1020.40 1020.64 1020.67 1020.73 1020.67 1020.77 1020.75 1020.51 1020.39 1020.11 1019.84 1019.56 1019.19 1018.60 1017.75 1017.38 1017.11 1016.60 1015.90 1015.64 1015.44 1014.99 1014.65 1014.58 1014.52 1014.51 1014.67 1014.87 1015.18 1015.00 1014.93 1014.96
1019.56 1020.02 1020.21 1020.29 1020.35 1020.29 1020.41 1020.39 1020.62 1020.69 1020.73 1020.82 1020.86 1020.80 1020.44 1020.13 1019.77 1019.67 1019.38 1019.14 1018.65 1017.64 1017.44 1016.79 1016.32 1016.43 1016.01 1015.55 1015.37 1015.09 1014.80 1014.76 1014.79 1014.86 1014.96 1015.20 1015.09 1015.05
1019.90 1020.19 1020.68 1021.02 1020.89 1020.73 1020.46 1020.25 1020.13 1020.30 1020.71 1020.84 1020.72 1020.55 1020.34 1020.15 1020.02 1019.90 1019.63 1019.37 1019.14 1018.60 1017.72 1017.38 1016.86 1016.89 1016.28 1015.91 1015.43 1015.09 1015.02 1015.11 1015.16 1015.04 1014.73 1014.77 1014.84 1014.53
1020.60 1020.89 1021.14 1021.42 1021.37 1021.05 1020.80 1020.79 1020.78 1020.76 1020.86 1020.73 1020.62 1020.20 1019.97 1019.95 1019.96 1020.00 1019.85 1019.51 1018.92 1018.74 1018.19 1018.09 1017.59 1017.32 1016.53 1016.34 1015.94 1015.69 1015.52 1015.46 1015.34 1014.88 1014.66 1014.57 1014.25 1014.16
1021.23 1021.31 1021.55 1021.74 1021.77 1021.33 1021.29 1021.34 1021.17 1020.91 1020.53 1020.40 1019.91 1019.42 1019.44 1019.49 1019.66 1019.70 1019.79 1019.89 1019.73 1019.25 1018.70 1018.84 1018.61 1017.96 1017.15 1016.88 1016.36 1016.32 1016.21 1016.04 1015.60 1015.07 1014.63 1014.50 1014.19 1013.99
1021.64 1022.05 1022.18 1022.19 1022.05 1021.97 1021.95 1022.02 1022.01 1021.76 1021.24 1020.54 1020.14 1019.73 1019.71 1019.87 1019.77 1019.89 1020.01 1020.33 1020.46 1020.18 1019.87 1019.65 1019.37 1018.93 1018.29 1017.36 1017.07 1016.89 1016.71 1016.21 1015.82 1015.69 1015.64 1015.37 1015.22 1014.76
1022.07 1022.41 1022.59 1022.47 1022.29 1022.46 1022.17 1022.27 1022.27 1021.97 1021.63 1021.41 1021.10 1020.91 1020.79 1020.74 1020.56 1020.56 1020.65 1020.79 1020.84 1021.17 1020.91 1019.97 1020.76 1020.41 1020.05 1019.33 1018.11 1017.76 1017.59 1017.17 1016.66 1016.51 1016.41 1016.31 1016.01 1015.90
1022.24 1022.43 1022.58 1022.64 1022.62 1022.61 1022.37 1022.41 1022.10 1021.69 1022.09 1022.09 1022.10 1022.17 1022.07 1022.13 1021.87 1021.39 1021.23 1021.21 1021.11 1021.51 1021.79 1021.15 1021.62 1021.63 1021.24 1020.70 1020.29 1018.95 1018.37 1017.96 1018.09 1017.88 1017.37 1016.86 1016.27 1015.83
1022.55 1022.57 1022.41 1022.55 1022.58 1022.86 1022.87 1022.75 1022.63 1022.85 1023.03 1023.11 1023.24 1023.23 1023.03 1022.65 1022.39 1022.13 1021.73 1021.53 1021.91 1022.14 1022.16 1022.21 1022.24 1021.99 1021.71 1021.67 1021.29 1020.60 1019.93 1018.79 1018.66 1018.55 1018.22 1017.76 1017.21 1016.70
1022.72 1022.63 1022.70 1022.95 1022.95 1023.33 1023.35 1023.49 1023.39 1023.69 1023.69 1023.92 1023.86 1023.67 1023.28 1023.04 1022.81 1023.01 1023.07 1022.87 1022.85 1023.01 1022.90 1022.68 1022.58 1022.30 1022.19 1021.83 1021.73 1021.67 1021.20 1021.06 1019.87 1019.33 1018.75 1018.16 1017.52 1017.30
1023.30 1022.93 1023.04 1023.56 1023.69 1023.70 1023.87 1024.13 1024.18 1024.01 1024.04 1024.26 1024.47 1024.36 1024.10 1023.69 1023.92 1023.90 1024.03 1023.97 1024.25 1024.45 1024.09 1023.43 1023.12 1023.05 1022.81 1022.33 1022.37 1022.13 1021.85 1021.33 1020.82 1019.95 1019.22 1018.58 1018.23 1017.64
1023.86 1023.44 1023.61 1023.74 1023.91 1024.24 1024.37 1024.53 1024.65 1024.66 1024.65 1024.55 1024.81 1025.03 1025.09 1024.91 1024.77 1024.65 1024.83 1025.12 1025.15 1024.91 1024.99 1024.37 1023.89 1023.42 1023.14 1022.94 1022.67 1022.79 1022.54 1022.00 1021.50 1021.03 1020.22 1019.54 1018.20 1018.03
1023.86 1023.72 1023.77 1024.31 1024.34 1024.36 1024.44 1024.81 1025.29 1025.32 1025.28 1025.07 1025.41 1025.56 1025.69 1025.58 1025.55 1025.54 1025.49 1025.77 1025.87 1025.67 1025.34 1025.25 1024.91 1024.63 1024.18 1024.13 1023.46 1022.99 1023.05 1022.36 1021.90 1021.49 1021.16 1020.49 1019.42 1017.90
1023.65 1023.68 1024.17 1024.53 1024.87 1025.05 1024.91 1025.17 1025.23 1025.44 1025.80 1026.07 1026.11 1026.29 1026.40 1026.44 1026.35 1026.47 1026.44 1026.57 1026.53 1026.35 1026.36 1026.13 1025.96 1025.78 1025.57 1025.17 1024.31 1023.56 1023.24 1023.05 1022.73 1022.10 1021.35 1020.50 1019.65 1018.40
1023.45 1023.75 1024.06 1024.56 1025.23 1025.38 1025.45 1025.65 1025.75 1025.70 1025.89 1026.49 1026.99 1027.04 1026.93 1026.97 1027.07 1026.96 1027.04 1026.96 1026.87 1026.82 1026.98 1026.99 1026.77 1026.26 1026.16 1025.51 1024.86 1024.02 1023.51 1023.35 1023.21 1022.69 1021.75 1020.52 1019.28 1017.78
1023.77 1024.10 1024.41 1024.56 1025.24 1025.85 1025.98 1026.11 1026.33 1026.53 1026.47 1026.69 1027.29 1027.47 1027.44 1027.46 1027.51 1027.53 1027.55 1027.68 1027.85 1027.69 1027.57 1027.19 1026.92 1026.52 1026.10 1025.81 1025.29 1024.34 1023.49 1023.00 1022.37 1021.95 1021.67 1021.33 1020.39 1018.75
1024.19 1024.19 1024.65 1025.18 1025.36 1025.74 1025.91 1026.11 1026.60 1027.03 1027.03 1027.46 1027.77 1027.99 1027.93 1027.91 1027.77 1027.79 1027.81 1027.79 1027.78 1027.57 1027.45 1027.12 1026.89 1026.52 1026.31 1026.12 1025.56 1024.67 1023.87 1023.19 1022.36 1021.76 1021.10 1020.51 1019.65 1018.97
Thickness
5779 5778 5777 5776 5775 5774 5769 5766 5764 5746 5748 5761 5765 5780 5783 5786 5789 5782 5787 5789 5792 5798 5800 5802 5801 5798 5795 5794 5792 5788 5786 5784 5784 5782 5778 5775 5772 5769
5778 5777 5775 5775 5774 5774 5774 5772 5774 5769 5760 5770 5769 5777 5781 5783 5791 5788 5792 5794 5797 5800 5804 5805 5803 5802 5800 5800 5797 5794 5792 5789 5788 5786 5783 5781 5778 5774
5781 5780 5777 5777 5773 5773 5774 5776 5778 5778 5763 5769 5777 5785 5788 5789 5786 5790 5792 5797 5799 5801 5802 5805 5804 5805 5804 5804 5801 5799 5797 5795 5793 5790 5788 5784 5782 5779
5778 5780 5780 5780 5776 5775 5773 5771 5770 5771 5768 5764 5773 5779 5779 5782 5783 5786 5791 5796 5800 5801 5801 5802 5804 5805 5806 5808 5807 5803 5802 5799 5796 5792 5791 5790 5785 5782
5779 5777 5776 5775 5773 5775 5774 5771 5771 5771 5770 5764 5766 5775 5776 5780 5781 5787 5790 5794 5797 5798 5799 5799 5802 5804 5806 5811 5813 5809 5804 5800 5797 5795 5792 5791 5789 5786
5780 5779 5778 5778 5775 5772 5770 5769 5769 5768 5766 5763 5765 5768 5770 5775 5777 5777 5782 5789 5793 5797 5797 5795 5800 5804 5806 5809 5813 5811 5805 5800 5798 5794 5793 5791 5789 5787
5777 5776 5776 5774 5773 5772 5769 5766 5765 5764 5763 5760 5759 5762 5764 5767 5769 5774 5774 5779 5789 5790 5790 5794 5800 5801 5801 5804 5804 5806 5805 5802 5798 5795 5792 5791 5791 5788
5772 5771 5768 5765 5765 5765 5765 5764 5763 5761 5760 5758 5756 5754 5759 5764 5769 5769 5770 5767 5767 5784 5782 5787 5792 5792 5794 5797 5796 5797 5799 5797 5795 5793 5790 5787 5786 5785
5765 5764 5757 5754 5756 5757 5760 5759 5761 5760 5758 5756 5754 5755 5755 5759 5760 5759 5759 5761 5763 5769 5774 5774 5784 5781 5788 5788 5790 5793 5792 5790 5789 5788 5788 5786 5782 5784
5752 5749 5748 5745 5746 5749 5751 5751 5751 5750 5749 5749 5750 5755 5758 5758 5754 5752 5752 5756 5762 5766 5768 5762 5772 5770 5778 5778 5780 5781 5782 5781 5782 5784 5784 5783 5782 5781
5738 5739 5737 5736 5736 5741 5740 5739 5740 5742 5743 5741 5747 5752 5753 5753 5748 5749 5747 5744 5741 5750 5757 5755 5757 5758 5764 5765 5767 5769 5767 5768 5771 5774 5777 5776 5777 5776
5725 5722 5722 5725 5728 5729 5728 5727 5725 5727 5729 5732 5737 5740 5740 5740 5739 5738 5736 5728 5726 5730 5741 5736 5741 5745 5740 5752 5753 5755 5754 5759 5761 5762 5762 5763 5762 5762
5714 5711 5712 5714 5718 5717 5719 5717 5717 5717 5720 5720 5723 5724 5724 5725 5724 5721 5719 5717 5717 5714 5718 5725 5717 5719 5724 5728 5734 5737 5738 5740 5747 5747 5744 5744 5747 5750
5705 5706 5707 5708 5708 5709 5709 5708 5709 5713 5710 5710 5708 5706 5707 5705 5705 5709 5708 5704 5709 5706 5703 5705 5700 5700 5702 5706 5709 5721 5722 5724 5723 5724 5730 5732 5734 5736
5696 5697 5701 5700 5701 5698 5697 5699 5700 5696 5694 5692 5690 5690 5690 5693 5692 5693 5695 5694 5690 5688 5688 5687 5686 5688 5690 5689 5691 5696 5699 5705 5708 5710 5711 5714 5718 5719
5687 5688 5688 5689 5689 5686 5685 5683 5684 5680 5680 5678 5677 5678 5680 5679 5680 5676 5673 5674 5671 5668 5669 5672 5673 5674 5672 5674 5676 5675 5678 5677 5687 5693 5697 5699 5702 5702
5675 5678 5676 5672 5673 5673 5672 5669 5668 5669 5668 5665 5662 5662 5663 5665 5661 5660 5657 5655 5652 5646 5647 5651 5653 5653 5653 5657 5653 5657 5659 5662 5665 5674 5680 5686 5685 5687
5662 5667 5664 5663 5661 5660 5659 5656 5653 5653 5652 5652 5649 5645 5643 5643 5642 5642 5639 5634 5632 5633 5630 5633 5633 5634 5634 5633 5634 5634 5635 5640 5644 5647 5653 5661 5674 5668
5650 5652 5650 5645 5644 5644 5643 5639 5634 5633 5634 5634 5630 5627 5624 5623 5622 5620 5619 5614 5612 5610 5612 5612 5613 5614 5615 5611 5615 5611 5611 5616 5620 5623 5625 5630 5640 5656
5636 5637 5631 5628 5624 5622 5623 5622 5620 5618 5615 5611 5610 5607 5605 5602 5601 5598 5596 5592 5590 5590 5587 5586 5585 5584 5584 5586 5592 5593 5590 5592 5593 5597 5600 5605 5610 5621
5621 5618 5614 5610 5605 5603 5602 5602 5601 5601 5598 5592 5587 5586 5586 5583 5580 5578 5575 5574 5572 5570 5565 5562 5561 5561 5562 5567 5570 5574 5573 5566 5564 5565 5569 5577 5586 5601
5598 5595 5594 5594 5588 5580 5580 5581 5580 5576 5574 5572 5566 5564 5563 5561 5558 5555 5553 5549 5545 5545 5543 5543 5542 5542 5542 5542 5543 5550 5553 5552 5550 5546 5539 5536 5543 5560
5573 5573 5570 5567 5566 5563 5561 5561 5557 5550 5549 5546 5543 5541 5539 5537 5537 5534 5531 5528 5525 5525 5522 5522 5519 5518 5516 5513 5514 5518 5522 5523 5525 5525 5522 5519 5521 5517